User: anonymous   Login
Location: Arrodets-la-Barthe
(43.0306°N, 0.2829°E)
Time: 10:11:13
(UTC+00:00)
Language:

Cosmos 1269 Rocket - Orbit

View from above orbital plane
View from above orbital plane
View from above satellite
View from above satellite

Ground track
Ground track

The orbit data is extracted from the following two-line orbital elements,

1 12443U 81041B   22019.32179131  .00000074  00000-0  35159-4 0  9997
2 12443  74.0560 338.0218 0004004   5.1097 355.0096 14.34786637128269
Epoch (UTC): 19 January 2022 07:43:22
Eccentricity: 0.0004004
inclination: 74.0560°
perigee height: 773 km
apogee height: 778 km
right ascension of ascending node: 338.0218°
argument of perigee: 5.1097°
revolutions per day: 14.34786637
mean anomaly at epoch: 355.0096°
orbit number at epoch: 12826

The dashed part of the orbit path shows where the satellite is in the earth's shadow,  

DLR